Terminal Aerodrome Forecast
Issued by NWS Charleston, WV

Current Version | Previous Version | Graphics & Text | Print | Product List | Glossary On
Versions: 1 2 3 4 5 6 7 8 9 10 11 12 13 14 15 16 17 18 19 20 21 22 23 24
000
FTUS41 KRLX 240543
TAFEKN
TAF
KEKN 240543Z 2406/2506 00000KT P6SM SCT250
     FM240800 00000KT 3SM BR SCT001
     FM240900 00000KT 1/4SM FG VV001
     FM241200 00000KT 3SM BR SCT001
     FM241300 25006KT P6SM FEW070
     FM242200 21004KT P6SM BKN070
     FM250300 00000KT P6SM BKN100=

USA.gov is the U.S. government's official web portal to all federal, state and local government web resources and services.